Location: Ottawa
(45.4170°N, 75.7000°W)
Time: 01:47:41
(UTC-04:00)

Daily predictions for brighter satellites

Satellite Brightness Start Highest point End
(mag) Time Altitude Azimuth Time Altitude Azimuth Time Altitude Azimuth
Cosmos 1655 Rocket 3.9 00:04:18 39° S 00:06:53 88° E 00:13:11 10° N
Cosmos 1607 4.5 00:02:30 10° SW 00:08:40 57° NW 00:14:48 10° NNE
Timation 2 Rocket 4.3 00:08:03 39° SSE 00:10:24 56° ESE 00:17:01 10° NE
CZ-4B R/B 2.1 00:10:59 47° E 00:11:05 48° ENE 00:14:41 10° N
Cosmos 1378 3.4 00:14:58 59° E 00:14:58 59° E 00:18:32 10° NNE
CENTAUR R/B 3.9 00:16:40 21° ESE 00:17:05 21° ESE 00:21:49 10° ENE
Cosmos 1689 Rocket 3.1 00:18:39 46° NE 00:18:39 46° NE 00:21:22 10° N
Cosmos 2026 Rocket 4.0 00:16:02 37° SSW 00:18:33 74° W 00:24:38 10° N
CZ-2C R/B 4.1 00:14:52 10° NE 00:19:08 22° E 00:20:10 21° ESE
CZ-4C R/B 2.1 00:17:09 36° SW 00:19:32 89° SE 00:25:39 10° NE
NOSS 3-3 (A) 4.5 00:13:23 10° NW 00:20:43 67° WSW 00:23:56 38° S
NOSS 3-3 (C) 4.5 00:13:29 10° NW 00:20:50 67° WSW 00:24:03 38° S
Meteor 1-24 Rocket 3.8 00:20:08 41° SSW 00:22:20 84° W 00:28:15 10° N
Cosmos 2228 Rocket 2.9 00:23:02 10° N 00:27:29 83° E 00:27:58 69° SSE
Helios 1A Rocket 3.6 00:24:25 10° NNE 00:28:09 40° E 00:28:09 40° E
CZ-4C R/B 3.5 00:29:08 49° NW 00:29:08 49° NW 00:31:44 10° NNW
ISS -1.2 00:26:23 10° NW 00:29:14 27° N 00:32:07 10° ENE
NOSS 3-2 (C) 3.5 00:27:22 31° SW 00:30:34 89° NW 00:37:23 10° NE
In-Cosmos 22 4.4 00:33:15 45° SE 00:34:36 56° E 00:40:10 10° NNE
Cosmos 841 Rocket 3.5 00:30:03 10° NNW 00:35:19 74° ENE 00:36:44 49° SE
Cosmos 1354 Rocket 4.3 00:35:56 46° SE 00:36:45 50° ESE 00:41:52 10° NNE
Cosmos 1503 Rocket 4.3 00:40:30 48° SE 00:41:21 53° ESE 00:46:31 10° NNE
Cosmos 1867 3.5 00:40:09 51° SSW 00:41:34 80° ESE 00:47:05 10° NE
Cosmos 1408 Rocket 4.2 00:42:05 41° WSW 00:43:00 48° WNW 00:47:21 10° N
Cosmos 2151 4.3 00:48:24 27° E 00:48:38 27° E 00:52:15 10° NNE
Helios 1B 4.5 00:48:39 66° SW 00:48:59 69° WSW 00:53:20 10° NNW
ALOS 2 2.7 00:48:44 55° WSW 00:49:05 57° W 00:53:26 10° NNW
Cosmos 2344 3.7 00:46:20 37° S 00:49:34 64° ESE 00:58:16 10° NE
Cosmos 2369 3.9 00:47:05 10° NW 00:52:36 53° WSW 00:53:43 46° SSW
Cosmos 883 Rocket 4.5 00:46:43 10° N 00:53:06 80° E 00:55:18 44° SSE
Genesis I 3.4 00:49:56 10° NW 00:53:27 60° W 00:53:27 60° W
Cosmos 1151 Rocket 3.3 00:49:56 10° N 00:54:08 53° ENE 00:54:35 50° ESE
Aureole 1 Rocket 3.8 01:01:23 10° NNW 01:06:03 63° ENE 01:08:17 37° SE
Meteor 1-21 Rocket 4.2 01:06:07 50° SSW 01:07:44 88° WNW 01:13:25 10° N
H-2A R/B 3.3 01:04:31 10° N 01:08:05 37° WNW 01:08:33 35° W
Cosmos 1980 Rocket 2.7 01:02:59 10° NNW 01:08:33 56° ENE 01:11:15 29° SE
Landsat 5 4.1 01:09:00 40° W 01:09:00 40° W 01:12:44 10° NNW
Cosmos 1743 Rocket 4.1 01:11:32 45° WSW 01:12:12 49° WNW 01:16:33 10° N
NOSS 3-2 (A) 4.4 01:07:50 12° WSW 01:13:23 46° NW 01:19:58 10° NNE
Lacrosse 5 1.7 01:09:37 10° NW 01:14:43 83° SW 01:15:56 53° SE
Cosmos 405 Rocket 4.2 01:14:20 26° W 01:14:44 27° WNW 01:17:59 10° NNW
CZ-2C R/B 3.6 01:15:02 35° SE 01:17:18 58° ENE 01:22:57 10° N
Cosmos 1908 3.2 01:15:37 10° NNW 01:19:18 76° WNW 01:19:18 76° WNW
Sich 1 4.5 01:24:20 26° ESE 01:25:11 27° E 01:28:57 10° NNE
Cosmos 1300 3.7 01:22:23 10° N 01:25:58 36° ENE 01:26:29 35° E
Cosmos 1697 Rocket 2.7 01:22:04 10° NNW 01:27:42 69° WSW 01:29:07 50° S
Cosmos 1500 Rocket 4.0 01:28:13 44° W 01:28:46 47° WNW 01:32:58 10° N
Cosmos 540 Rocket 3.4 01:25:07 10° NNW 01:30:20 84° ENE 01:31:46 49° SSE
Cosmos 2266 Rocket 4.4 01:29:49 36° SW 01:32:17 57° WNW 01:38:37 10° N
Cosmos 2315 Rocket 4.0 01:26:09 10° NNW 01:32:28 74° W 01:34:36 44° SSW
Cosmos 2082 Rocket 2.5 01:31:09 37° SW 01:33:17 62° WNW 01:38:57 10° NNE
Cosmos 1763 Rocket 4.5 01:30:06 10° NW 01:34:45 31° W 01:35:17 31° WSW
Cosmos 1441 Rocket 3.3 01:34:50 66° W 01:34:57 67° WNW 01:38:52 10° N
Cosmos 1833 Rocket 2.7 01:34:02 43° SW 01:35:54 75° WNW 01:41:34 10° NNE
PSLV R/B 3.8 01:37:06 70° SSE 01:37:34 86° ENE 01:41:46 10° NNW
ATLAS 5 CENTAUR R/B 4.1 01:37:22 11° ESE 01:38:05 11° ESE 01:39:34 10° E
Cosmos 1726 3.1 01:35:46 10° N 01:39:14 37° ENE 01:39:44 35° E
Lacrosse 5 rocket 1.9 01:36:22 10° NW 01:40:37 62° NE 01:43:29 21° ESE
CZ-4B R/B 4.1 01:44:45 13° W 01:44:45 13° W 01:45:59 10° WNW
Cosmos 1437 Rocket 3.2 01:41:16 10° NNW 01:44:49 48° W 01:44:49 48° W
Meteor 2-11 Rocket 4.4 01:39:18 10° N 01:45:30 89° W 01:47:50 41° S
Cosmos 405 3.2 01:42:02 10° NNW 01:45:21 66° WNW 01:45:21 66° WNW
Cosmos 1656 4.3 01:41:18 10° NW 01:46:32 38° WSW 01:47:21 36° SW
Cosmos 1674 3.4 01:54:23 39° W 01:54:29 39° WNW 01:58:03 10° N
Cosmos 1437 3.2 01:55:03 59° ENE 01:55:03 59° ENE 01:58:04 10° NNE
CZ-2C R/B 3.1 01:54:20 10° N 01:59:45 55° WNW 02:01:42 36° SW
Cosmos 2058 2.8 02:01:55 65° SW 02:02:27 78° W 02:06:38 10° N
Cosmos 332 Rocket 3.7 01:57:40 10° NNW 02:02:28 69° WSW 02:03:26 53° SSW
Cosmos 2360 4.1 01:57:57 10° NNW 02:03:42 81° WSW 02:06:04 37° SSE
Cosmos 1626 4.3 02:02:44 16° ESE 02:03:54 18° E 02:06:31 10° NE
Landsat 4 4.3 02:03:18 42° ESE 02:04:09 52° ENE 02:07:49 10° N
ISS -3.1 02:02:49 10° WNW 02:05:58 67° N 02:05:58 67° N
CENTAUR R/B 2.6 02:03:49 34° SW 02:06:49 80° NW 02:13:51 10° NE
CZ-4C R/B 4.3 02:04:15 10° W 02:08:57 25° NNW 02:14:09 10° NNE
Iridium 2 4.0 02:13:09 50° W 02:13:21 51° W 02:17:06 10° N
SL-16 R/B 2.4 02:08:50 10° NNW 02:14:32 70° ENE 02:18:38 19° SE
PSLV R/B 3.8 02:13:56 10° NNE 02:18:30 64° E 02:19:47 43° SSE
Cosmos 1805 Rocket 4.0 02:19:20 43° WSW 02:20:17 51° WNW 02:24:39 10° N
Cosmos 968 Rocket 3.4 02:19:49 43° S 02:21:31 80° ESE 02:26:41 10° NNE
ASTEX 1 3.7 02:16:55 10° N 02:21:47 57° W 02:23:17 40° SW
SL-08 R/B 4.4 02:19:50 37° SSW 02:22:24 74° W 02:28:33 10° N
Cosmos 2322 Rocket 2.1 02:19:00 10° NNW 02:24:41 88° ENE 02:28:09 24° SSE
Cosmos 2151 4.3 02:25:00 25° W 02:25:54 27° WNW 02:29:33 10° NNW
Cosmos 1633 Rocket 3.1 02:25:15 49° SSW 02:26:20 72° W 02:30:46 10° N
SL-08 R/B 4.1 02:24:12 19° SE 02:27:32 51° ENE 02:32:19 10° N
Cosmos 1707 Rocket 4.3 02:28:40 10° NNW 02:32:36 34° W 02:33:09 33° WSW
Cosmos 2242 Rocket 3.7 02:29:44 10° NNW 02:34:04 56° W 02:35:03 45° SW
SL-14 R/B 3.5 02:35:29 45° WSW 02:36:04 50° WNW 02:39:52 10° N
Cosmos 1666 Rocket 4.1 02:36:49 36° WSW 02:37:52 44° WNW 02:42:02 10° N
Meteor 2-10 4.0 02:38:02 10° NNW 02:43:19 80° W 02:46:08 29° S
Meteor 1-4 Rocket 2.5 02:39:34 10° NNW 02:43:22 86° W 02:44:24 47° S
Cosmos 1869 3.7 02:40:07 10° N 02:44:03 60° E 02:45:59 28° SSE
Abrixas 3.6 02:42:32 18° WNW 02:44:34 44° N 02:47:33 10° ENE
JB-3 4.2 02:40:47 10° NNE 02:44:47 86° WNW 02:45:55 46° SSW
Cosmos 1271 Rocket 2.5 02:41:21 10° NNW 02:45:09 83° W 02:46:09 47° S
Cosmos 1703 3.3 02:46:24 46° SW 02:47:23 66° W 02:51:21 10° N
Cosmos 1470 Rocket 3.5 02:47:03 39° SSW 02:48:39 84° W 02:53:06 10° N
Cosmos 2181 Rocket 4.2 02:42:38 10° N 02:48:49 71° E 02:53:52 16° SSE
ERS-2 2.1 02:46:53 10° NNE 02:50:37 77° ESE 02:51:43 43° S
NPP 3.8 02:45:40 10° NNE 02:51:04 71° ESE 02:54:03 27° S
Cosmos 1980 Rocket 3.4 02:47:45 10° NW 02:52:09 24° WSW 02:53:00 23° WSW
Cosmos 371 Rocket 4.0 02:47:55 10° NW 02:52:19 35° WSW 02:53:20 32° SW
Cosmos 1933 Rocket 3.5 02:51:18 38° SSW 02:52:56 79° W 02:57:22 10° N
Cosmos 2360 Rocket 2.8 02:47:45 10° NNW 02:53:19 58° ENE 02:58:52 10° SE
Lacrosse 5 3.9 02:54:01 10° W 02:55:03 13° W 02:55:03 13° W
Cosmos 923 Rocket 3.9 02:53:33 10° NNW 02:58:49 72° WSW 03:02:13 22° S
Cosmos 304 Rocket 3.8 02:54:38 10° NNW 02:59:30 80° ENE 03:03:43 14° SSE
Cosmos 1346 4.2 03:01:02 28° SE 03:02:03 38° E 03:04:56 10° NNE
Sich 1 4.3 03:01:20 24° WSW 03:02:49 29° WNW 03:06:43 10° NNW
Cosmos 773 Rocket 4.2 03:01:01 10° NNW 03:05:59 50° WSW 03:08:29 27° SSW
Cosmos 1680 Rocket 3.4 03:01:38 10° NNW 03:06:51 79° WSW 03:11:07 16° SSE
Cosmos 1777 Rocket 4.1 03:05:22 28° SW 03:08:07 67° WNW 03:13:25 10° NNE
IRAS Rocket 4.3 03:03:10 10° N 03:08:37 64° WNW 03:11:43 26° SW
BREEZE-M TANK 2.1 03:03:35 10° W 03:09:28 84° S 03:12:01 10° E
SL-23 DEB 4.4 03:08:01 10° NW 03:11:03 47° NNE 03:14:31 10° E
IRS-1C 4.2 03:07:35 10° NNE 03:12:58 75° ESE 03:16:32 21° S
Cosmos 1726 4.1 03:12:08 10° NW 03:14:17 15° W 03:14:24 15° W
Cosmos 2322 3.8 03:10:11 10° NNW 03:15:57 83° ENE 03:21:42 10° SSE
Cosmos 2219 4.3 03:12:19 14° SSE 03:16:43 37° ESE 03:21:57 10° NE
Resurs 1-4 Rocket 3.5 03:14:20 10° NNE 03:19:06 32° E 03:23:51 10° SSE
CBERS-1 4.0 03:14:03 10° NNE 03:19:12 80° WNW 03:22:24 23° SSW
Lacrosse 5 rocket 2.7 03:16:08 10° WNW 03:19:06 23° WSW 03:19:06 23° WSW
ATLAS 5 CENTAUR R/B 1.9 03:18:55 26° SSW 03:21:44 81° SE 03:27:04 10° NE
USA 215 3.3 03:15:40 10° NE 03:22:12 68° SE 03:26:49 21° SW
USA 161 1.0 03:23:27 45° SSE 03:24:02 79° ENE 03:26:26 10° N
Cosmos 1933 3.3 03:20:41 10° N 03:24:43 89° W 03:27:41 18° S
Cosmos 2184 Rocket 4.5 03:19:10 11° S 03:25:08 60° E 03:31:21 10° NNE
ARIANE 5 R/B 3.2 03:20:56 10° NNE 03:25:53 49° E 03:30:18 12° S
AQUA 3.9 03:21:23 10° N 03:26:08 67° WNW 03:29:01 23° SSW
Cosmos 1862 Rocket 4.4 03:22:13 10° NNW 03:26:18 35° W 03:28:10 24° SW
Cosmos 1455 3.1 03:25:09 10° NNW 03:28:33 31° W 03:29:43 26° SW
IRS-1D 4.2 03:28:46 10° NNE 03:34:00 54° E 03:39:01 11° S
Cosmos 1709 Rocket 4.3 03:30:36 20° SSW 03:34:50 53° WNW 03:40:57 10° N
ATLAS CENTAUR R/B 1.8 03:30:51 10° NNW 03:35:38 76° NE 03:39:59 10° SE
SL-16 R/B 2.8 03:29:54 10° SSE 03:36:08 74° ENE 03:42:24 10° NNW
Okean O Rocket 4.0 03:34:07 10° NE 03:37:19 19° E 03:40:29 10° SE
Cosmos 1898 Rocket 4.1 03:33:26 14° S 03:37:47 51° ESE 03:42:47 10° NNE
Cosmos 2333 Rocket 4.4 03:33:25 10° N 03:38:21 29° NE 03:43:16 10° ESE
Cosmos 1626 3.2 03:37:27 22° WSW 03:39:06 32° WNW 03:42:30 10° N
ADEOS 3.7 03:44:03 10° N 03:49:13 62° WNW 03:53:19 16° SSW
COSMOS 2428 2.9 03:43:36 10° NNW 03:49:19 78° ENE 03:54:59 10° SSE
Cosmos 1833 4.3 03:45:38 18° SW 03:50:02 73° WNW 03:55:47 10° NNE
SME Rocket 4.3 03:45:01 10° SE 03:50:41 53° ENE 03:54:48 10° N
Cosmos 1869 Rocket 3.6 03:50:55 16° SSW 03:54:21 68° W 03:58:48 10° N
Cosmos 389 Rocket 3.6 03:51:04 10° N 03:54:41 48° ENE 03:58:15 10° SSE
H-2A ROCKET BODY3.803:57:36S03:57:36S03:45:57WSW
SL-16 R/B 3.6 03:54:13 10° WNW 03:58:01 19° W 04:00:26 14° SW
Cosmos 2221 Rocket 4.1 03:53:52 10° NNW 03:58:09 43° W 04:01:55 13° SSW
CENTAUR R/B 4.4 03:53:12 10° W 03:58:40 27° NNW 04:04:41 10° NNE
Cosmos 2237 Rocket 4.0 03:56:03 10° NNW 04:01:18 36° NE 04:06:31 10° ESE
Cosmos 2150 Rocket 4.1 03:56:40 13° SSW 04:01:26 85° ESE 04:06:53 10° NNE
Cosmos 2322 Rocket 3.9 04:05:07 10° WNW 04:07:52 14° W 04:09:55 12° WSW
Cosmos 2237 4.2 04:05:56 10° NNW 04:11:39 70° WSW 04:17:20 10° SSE
Cosmos 2219 Rocket 2.8 04:08:21 10° NNW 04:13:55 62° ENE 04:19:26 10° SE
UNKNOWN OBJECT B 2.9 04:10:54 10° NNE 04:14:45 73° ESE 04:18:38 10° S
USA 129 1.5 04:16:19 27° SW 04:16:38 31° W 04:18:00 10° NNW
CZ-2D R/B 2.1 04:11:22 10° NNE 04:16:39 84° WNW 04:21:58 10° SSW
Abrixas 2.5 04:17:47 10° WNW 04:20:53 85° NNE 04:23:59 10° ESE
Cosmos 1733 Rocket 3.3 04:20:08 10° S 04:24:27 70° E 04:28:50 10° NNE
Meteor 2-10 Rocket 3.6 04:23:16 10° N 04:28:22 85° E 04:33:36 10° S
Meteor 2-3 Rocket 3.8 04:23:24 10° SSW 04:29:10 72° WNW 04:35:01 10° N
USA 229 DEB 3.8 04:24:13 10° SW 04:31:11 78° NW 04:38:14 10° NE
USA 229 3.8 04:24:19 10° SW 04:31:17 78° NW 04:38:21 10° NE
SL-16 R/B 4.5 04:27:16 10° N 04:32:16 30° NE 04:37:14 10° ESE
NOSS 0 Rocket 4.1 04:27:44 10° NNW 04:33:56 81° ENE 04:40:06 10° SSE
Coronas F rocket 2.8 04:33:07 10° SSE 04:35:40 36° E 04:38:15 10° NNE
Cosmos 2360 Rocket 3.3 04:32:35 10° NW 04:36:53 23° W 04:41:11 10° SSW
Okean 1-7 4.2 04:33:21 10° NNW 04:36:58 25° W 04:40:33 10° SW
Cosmos 990 Rocket 4.0 04:35:12 10° SSW 04:40:22 90° WNW 04:45:34 10° NNE
Cosmos 2341 Rocket 4.1 04:34:51 10° S 04:41:11 90° WNW 04:47:37 10° N
MOZ.5/SAFIR/RUBIN 5/SL-8 4.0 04:37:31 10° SSE 04:42:12 78° ENE 04:46:58 10° N
Cosmos 2227 Rocket 3.1 04:38:52 10° S 04:44:15 49° ESE 04:49:42 10° NE
In-Cosmos 22 Rocket 4.5 04:39:33 10° SSW 04:44:42 49° WNW 04:50:00 10° N
Nadezhda 3 Rocket 4.1 04:39:24 10° NNW 04:45:28 61° W 04:51:29 10° S
